Weather History for Laurinburg-Maxton, NC

Change the Weather History Date:

Thursday, July 18, 2013

  Actual Average (KLBT) Record (KLBT)
Temperature  
Mean Temperature 82 °F 81 °F  
Max Temperature 91 °F 91 °F 97 °F (2007)
Min Temperature 73 °F 72 °F 66 °F (2000)
Degree Days  
Heating Degree Days 0 0  
Month to date heating degree days 0  
Since 1 June heating degree days 0  
Since 1 July heating degree days 0  
Cooling Degree Days 16 16  
Month to date cooling degree days 288  
Year to date cooling degree days 926  
Since 1 June cooling degree days 676  
Growing Degree Days 32 (Base 50)    
Moisture  
Dew Point 74 °F    
Average Humidity 86    
Maximum Humidity 100    
Minimum Humidity 52    
Precipitation  
Precipitation 0.19 in 0.20 in 0.80 in (2010)
Month to date precipitation 2.90  
Year to date precipitation 22.31  
Sea Level Pressure  
Sea Level Pressure 30.12 in    
Wind  
Wind Speed 2 mph (SW)    
Max Wind Speed 8 mph    
Max Gust Speed -    
Visibility 6 miles    
Events Rain    
T = Trace of Precipitation, MM = Missing Value Source: NWS Daily Summary

Daily Weather History Graph

Daily Weather History Graph

Search for Another Location

Airport:

Trip Planner

Search our weather history database for the weather conditions in past years. The results will help you decide how hot, cold, wet, or windy it might be!

Date:

Astronomy

Jul. 18, 2013 Rise Set
Actual Time 6:17 AM EDT 8:29 PM EDT
Civil Twilight 5:48 AM EDT 8:58 PM EDT
Nautical Twilight 5:13 AM EDT 9:33 PM EDT
Astronomical Twilight 4:35 AM EDT 10:11 PM EDT
Moon 4:25 PM EDT (7/18) 2:04 AM EDT (7/18)
Length of Visible Light 15h 09m
Length of Day
14h 12m
Waxing Gibbous, 77% of the Moon is Illuminated
Jul 18
Waxing Gibbous
Jul 22
Full
Jul 29
Last Quarter
Aug 6
New
Aug 14
First Quarter

Hourly Weather History & Observations

Time (EDT) Temp. Heat Index Dew Point Humidity Pressure Visibility Wind Dir Wind Speed Gust Speed Precip Events Conditions
12:52 AM 75.9 °F - 75.0 °F 97% 30.16 in 5.0 mi Calm Calm - N/A   Overcast
1:52 AM 75.9 °F - 75.0 °F 97% 30.15 in 5.0 mi Calm Calm - N/A   Overcast
2:52 AM 75.0 °F - 75.0 °F 100% 30.13 in 4.0 mi SSW 3.5 mph - N/A   Mostly Cloudy
3:40 AM 73.4 °F - 73.4 °F 100% 30.13 in 2.5 mi WSW 4.6 mph - N/A   Mostly Cloudy
3:52 AM 73.9 °F - 73.9 °F 100% 30.12 in 2.5 mi Calm Calm - N/A   Overcast
4:04 AM 75.2 °F - 75.2 °F 100% 30.13 in 4.0 mi Calm Calm - N/A   Overcast
4:22 AM 75.2 °F - 75.2 °F 100% 30.13 in 4.0 mi NW 4.6 mph - N/A   Overcast
4:30 AM 75.2 °F - 75.2 °F 100% 30.13 in 3.0 mi Calm Calm - N/A   Overcast
4:52 AM 75.0 °F - 75.0 °F 100% 30.12 in 3.0 mi Calm Calm - N/A   Overcast
5:01 AM 75.2 °F - 75.2 °F 100% 30.13 in 2.0 mi Calm Calm - 0.05 in Rain Heavy Rain
5:13 AM 75.2 °F - 75.2 °F 100% 30.13 in 3.0 mi Calm Calm - 0.06 in Rain Light Rain
5:20 AM 75.2 °F - 75.2 °F 100% 30.13 in 1.5 mi Calm Calm - 0.14 in Rain Heavy Rain
5:35 AM 75.2 °F - 75.2 °F 100% 30.13 in 3.0 mi West 4.6 mph - 0.19 in Rain Light Rain
5:52 AM 75.0 °F - 75.0 °F 100% 30.13 in 5.0 mi Calm Calm - 0.19 in   Overcast
6:31 AM 75.2 °F - 75.2 °F 100% 30.15 in 2.5 mi Calm Calm - N/A   Overcast
6:52 AM 75.0 °F - 73.9 °F 96% 30.14 in 2.5 mi Calm Calm - N/A   Mostly Cloudy
7:25 AM 77.0 °F - 75.2 °F 94% 30.15 in 4.0 mi Calm Calm - N/A   Mostly Cloudy
7:52 AM 77.0 °F - 75.9 °F 96% 30.14 in 4.0 mi Calm Calm - N/A   Partly Cloudy
8:52 AM 81.0 °F 86.7 °F 75.0 °F 82% 30.14 in 9.0 mi Calm Calm - N/A   Clear
9:52 AM 84.0 °F 91.2 °F 73.9 °F 72% 30.14 in 6.0 mi Calm Calm - N/A   Haze
10:52 AM 86.0 °F 91.5 °F 71.1 °F 61% 30.15 in 10.0 mi WSW 3.5 mph - N/A   Clear
11:52 AM 87.1 °F 93.6 °F 72.0 °F 61% 30.15 in 10.0 mi SSW 4.6 mph - N/A   Partly Cloudy
12:52 PM 89.1 °F 95.0 °F 71.1 °F 55% 30.14 in 10.0 mi WSW 6.9 mph - N/A   Clear
1:52 PM 90.0 °F 95.4 °F 70.0 °F 52% 30.13 in 10.0 mi SW 5.8 mph - N/A   Partly Cloudy
2:52 PM 89.1 °F 96.0 °F 72.0 °F 57% 30.11 in 10.0 mi SW 5.8 mph - N/A   Scattered Clouds
3:52 PM 87.1 °F 93.6 °F 72.0 °F 61% 30.09 in 10.0 mi Calm Calm - N/A   Scattered Clouds
4:52 PM 84.9 °F 92.1 °F 73.9 °F 69% 30.08 in 10.0 mi NNW 5.8 mph - N/A   Overcast
5:52 PM 84.9 °F 93.3 °F 75.0 °F 72% 30.07 in 9.0 mi Calm Calm - N/A   Scattered Clouds
6:52 PM 84.9 °F 93.3 °F 75.0 °F 72% 30.06 in 10.0 mi Calm Calm - N/A   Partly Cloudy
7:52 PM 82.0 °F 87.9 °F 73.9 °F 76% 30.07 in 10.0 mi SW 3.5 mph - N/A   Partly Cloudy
8:52 PM 78.1 °F - 75.0 °F 90% 30.09 in 7.0 mi West 3.5 mph - N/A   Scattered Clouds
9:52 PM 79.0 °F - 73.9 °F 84% 30.11 in 9.0 mi SSW 8.1 mph - N/A   Clear
10:52 PM 78.1 °F - 73.9 °F 87% 30.12 in 9.0 mi South 4.6 mph - N/A   Mostly Cloudy
11:52 PM 75.9 °F - 73.9 °F 94% 30.12 in 9.0 mi South 4.6 mph - N/A   Clear